Back to catalog

STARLINK-34665

AliveCommunicationsVLEO
NORAD 65089·PAYLOAD·🇺🇸 United States

Launched Aug 4, 2025 from Cape Canaveral Space Force Station

Loading…

Next Passes (next 24 hours)

TLE

FreshSource: CelesTrak SupGP

Epoch: Sep 14, 2026, 22:36 UTC

1 65089C 25167M   26257.94215278  .00017503  00000+0  51699-3 0  2574
2 65089  53.1599 227.4275 0001373  89.6214  55.8113 15.34390247    17

Track STARLINK-34665 in real time with AllMySat

Download on the App Store